Regional Weather Roundup
Issued by NWS

Home | Current Version | Previous Version | Graphics & Text | Print | Product List | Glossary On
Versions: 1 2 3 4 5 6 7 8 9 10 11 12 13 14 15 16 17 18 19 20 21 22 23 24 25 26 27 28 29 30 31 32 33 34 35 36 37 38 39 40 41 42 43 44 45 46 47 48 49 50
000
ASUS45 KTFX 222004
RWRMT
MONTANA HOURLY WEATHER ROUNDUP
NATIONAL WEATHER SERVICE GREAT FALLS MT
204 PM MDT FRI AUG 22 2014

NOTE: "FAIR" INDICATES FEW OR NO CLOUDS BELOW 12000 FEET WITH NO
SIGNIFICANT WEATHER AND/OR OBSTRUCTIONS TO VISIBILITY.

* THESE STATIONS ARE NOT UNDER NWS QUALITY CONTROL. THEY DO NOT
   REPORT WEATHER SUCH AS PRECIPITATION OR FOG.

MTZ001>007-043-222100-
WEST OF THE DIVIDE
CITY           SKY/WX    TMP DP  RH WIND       PRES   REMARKS
KALISPELL      CLOUDY    55  52  90 NW5       30.10S
MISSOULA       CLOUDY    64  54  70 NW9       30.04F
BUTTE          CLOUDY    61  45  56 N3        30.09F
MULLAN PASS    PTSUNNY   54  46  74 VRB3      30.11S
* ESSEX        N/A       58  44  60 N4G9       N/A
* LINCOLN      N/A       57  47  69 NE10G16    N/A
* LOOKOUT PASS N/A       59  46  62 SW3G10     N/A
* POLSON       N/A       58  49  72 N3         N/A
* RONAN APT    CLOUDY    64  54  70 NW14       N/A
* SEELEY LAKE  N/A       57  52  83 W3G8       N/A
* THOMP F APT  PTSUNNY   51  47  86 S4G12      N/A
$$

MTZ008-052>055-222100-
SOUTHWEST MONTANA
CITY           SKY/WX    TMP DP  RH WIND       PRES   REMARKS
BOZEMAN        CLOUDY    63  48  58 N3        30.06F
DILLON         CLOUDY    59  48  67 VRB6      30.06F
W YELLOWSTONE  CLOUDY    52  46  80 CALM      30.14S
* THREE FORKS  CLOUDY    63  39  41 N/A        N/A
* BOULDER HILL N/A       50  46  86 VRB4       N/A
* MONIDA PASS  N/A       52  47  83 SE18G24    N/A
* RAYNOLDS PAS N/A       55  34  45 SE13G18    N/A
* WHITEHALL    N/A       63  51  65 E6G12      N/A
* WISE RIVER   N/A       61  47  60 SE12G17    N/A
$$

MTZ009>010-012-014-046-048-049-054-222100-
EAST SLOPES AND CENTRAL MONTANA
CITY           SKY/WX    TMP DP  RH WIND       PRES   REMARKS
CUT BANK       CLOUDY    54  48  80 NE17      30.18S
GREAT FALLS    CLOUDY    57  54  90 N10       30.12S
HELENA         PTSUNNY   63  48  58 N10G17    30.08S
MALMSTROM AFB  CLOUDY    55  54  96 N9        30.13F
* CONRAD       CLOUDY    55  55 100 NW7        N/A
* DEARBORN     N/A       57  51  80 N7         N/A
* EAST GLACIER N/A       47  46  96 E18G24     N/A
* MONARCH      N/A       49  46  89 NW7        N/A
* PENDROY      N/A       51  50  96 NE11       N/A
* ROGERS PASS  N/A       48  48 100 S6G11      N/A
* SAINT MARY   N/A       48  46  93 NE2G10     N/A
* SWEET GRASS  N/A       49  49 100 NE26       N/A
$$

MTZ011-013-016-021-035-040-045-047-050-051-222100-
NORTH CENTRAL MONTANA
CITY           SKY/WX    TMP DP  RH WIND       PRES   REMARKS
HAVRE          CLOUDY    64  55  73 E16       30.10S
LEWISTOWN      LGT RAIN  59  54  84 E8        30.10S
* CHESTER      N/A       56  52  87 NE9G14     N/A
* DENTON       N/A       55  54  96 NW12       N/A
* GEYSER       N/A       55  52  90 NE8        N/A
* JUDITH GAP   N/A       53  53 100 NW8        N/A
* LOMA         N/A       57  55  93 W9         N/A
$$

MTZ017>020-022>027-061-062-222100-
NORTHEAST MONTANA
CITY           SKY/WX    TMP DP  RH WIND       PRES   REMARKS
GLASGOW        CLOUDY    63  57  81 E15       30.10F
GLENDIVE       CLOUDY    66  61  84 NE14      30.09S
JORDAN         CLOUDY    70  55  59 E13       30.06F
SIDNEY         CLOUDY    66  59  78 NE9       30.10F
WOLF POINT     LGT RAIN  64  57  78 NE10      30.10F
* BEAVER HILL  N/A       67  56  68 NE12       N/A
* CIRCLE       N/A       60  59  97 NE9G16     N/A
* LINDSAY DVD  N/A       63  57  81 NE14G19    N/A
* SACO         N/A       63  57  81 NE15       N/A
$$

MTZ028>042-056>058-222100-
SOUTHCENTRAL AND SOUTHEAST MONTANA
CITY           SKY/WX    TMP DP  RH WIND       PRES   REMARKS
BAKER          CLOUDY    72  59  64 E8        30.07F
LIVINGSTON     TSTM      63  50  63 E10       30.06F
MILES CITY     CLOUDY    70  55  59 NE9       30.05F
* LAUREL APT   CLOUDY    63  55  75 NE7        N/A
* ROUNDUP APT  CLOUDY    63  54  73 NE8        N/A
* ALZADA       N/A       71  57  61 NE6        N/A
* HYSHAM       N/A       66  49  54 E7         N/A
* LAME DEER    N/A       62  56  81 NE9        N/A
* REED POINT   N/A       68  49  51 E6         N/A
* ROSCOE HILL  N/A       57  43  60 E3         N/A
$$

REGIONAL REPORTS...DAKOTAS
CITY           SKY/WX    TMP DP  RH WIND       PRES   REMARKS
WILLISTON      CLOUDY    66  54  65 NE10      30.11S
DICKINSON      CLOUDY    66  61  84 NE12      30.07R
BEACH          N/A       64  63  97 NE14      30.09S
CROSBY         CLOUDY    66  55  68 E9        30.14S
TIOGA          CLOUDY    64  59  84 NE14      30.15S
WATFORD CITY   CLOUDY    64  57  78 NE9       30.09S
BISMARCK       PTSUNNY   75  64  69 N9        30.04S
GRAND FORKS    CLOUDY    70  64  81 N14       30.01S
FARGO          CLOUDY    73  66  79 NW7       30.00S
BUFFALO SD     CLOUDY    68  59  73 E8        30.01S
RAPID CITY     PTSUNNY   73  61  66 E9        30.05S
$$

REGIONAL REPORTS...WYOMING/IDAHO/WASHINGTON
CITY           SKY/WX    TMP DP  RH WIND       PRES   REMARKS
GILLETTE       PTCLDY    75  52  45 SE3       30.03F
SHERIDAN       CLOUDY    70  55  59 NW7       30.02F
CODY           PTSUNNY   63  50  63 E8        30.08F
YELLOWSTONE LA CLOUDY    50  41  71 VRB6      30.21S
SALMON         CLOUDY    61  43  52 S20G25    30.01R
MULLAN PASS    PTSUNNY   54  46  74 VRB3      30.11S
SAND POINT     CLOUDY    66  50  56 N21G29    30.04S
SPOKANE        PTSUNNY   70  52  53 NE10      30.01F

$$



USA.gov is the U.S. government's official web portal to all federal, state and local government web resources and services.